Location: Charlotte
(35.2269°N, 80.8433°W)
Time: 00:48:17
(UTC-04:00)

ISS - Visible Passes

Search period start: 22 October 2014 00:00
Search period end: 01 November 2014 00:00
Orbit: 413 x 416 km, 51.6° (Epoch: 21 October)

Date Brightness Start Highest point End Pass type
(mag) Time Alt. Az. Time Alt. Az. Time Alt. Az.
22 Oct -1.0 19:43:19 10° N 19:44:46 12° NNE 19:44:58 12° NNE visible
23 Oct -1.1 20:29:35 10° NW 20:30:55 21° NNW 20:30:55 21° NNW visible
24 Oct -2.0 19:40:44 10° NNW 19:43:33 25° NNE 19:44:04 24° NE visible
25 Oct -2.0 20:27:51 10° NW 20:30:14 41° WNW 20:30:14 41° WNW visible
26 Oct -3.4 19:38:37 10° NW 19:41:56 69° NE 19:43:42 25° ESE visible
27 Oct -0.7 20:26:47 10° W 20:29:06 18° SW 20:30:17 15° SSW visible
28 Oct -1.6 19:36:53 10° WNW 19:39:56 34° SW 19:42:58 10° SSE visible
30 Oct 0.2 19:36:39 10° WSW 19:37:35 11° SW 19:38:32 10° SW visible
